Regional Weather Roundup
Issued by NWS

Home | Current Version | Previous Version | Graphics & Text | Print | Product List | Glossary On
Versions: 1 2 3 4 5 6 7 8 9 10 11 12 13 14 15 16 17 18 19 20 21 22 23 24 25 26 27 28 29 30 31 32 33 34 35 36 37 38 39 40 41 42 43 44 45 46 47 48 49 50
000
ASUS43 KLSX 251059
RWRMO

WEATHER SUMMARY FOR MISSOURI
NATIONAL WEATHER SERVICE SPRINGFIELD MO
600 AM CDT SAT APR 25 2015

NOTE: "FAIR" INDICATES FEW OR NO CLOUDS BELOW 12,000 FEET WITH NO
       SIGNIFICANT WEATHER AND/OR OBSTRUCTIONS TO VISIBILITY.
       CURRENT SKY AND/OR WEATHER CONDITIONS ARE NOT AVAILABLE FOR
       CHILLICOTHE AND FARMINGTON.

MOZ001>031-035>038-043-044-053-054-251200-
...NORTHERN AND WESTERN MISSOURI...

CITY           SKY/WX    TMP DP  RH WIND       PRES   REMARKS
KANSAS CTY INT MOCLDY    55  54  96 SE9       29.40R
KANSAS C DTWN  MOCLDY    58  54  86 SE10G18   29.40S
LEE`S SUMMIT   CLOUDY    56  55  97 S7        29.43F
ST JOSEPH      CLOUDY    57  55  93 S7        29.41R
CHILLICOTHE      N/A     55  53  93 E7        29.45F
KIRKSVILLE     LGT RAIN  52  52 100 CALM      29.53S

$$
MOZ066>068-077>081-088>096-101>105-251200-
...SOUTHWEST MISSOURI...

CITY           SKY/WX    TMP DP  RH WIND       PRES   REMARKS
SPRINGFIELD    PTCLDY    58  56  93 S15       29.50S
JOPLIN         CLEAR     61  56  83 SW17G29   29.48R

$$
MOZ032>034-039>042-045>050-055>058-069>072-251200-
...CENTRAL MISSOURI...

CITY           SKY/WX    TMP DP  RH WIND       PRES   REMARKS
COLUMBIA       CLOUDY    56  54  93 S15       29.50F
JEFFERSON CITY CLOUDY    57  54  89 SE9       29.51F
ROLLA          CLOUDY    56  55  97 S15G23    29.52F
SEDALIA        CLOUDY    59  56  89 S9        29.48F
OSAGE BEACH    CLOUDY    59  54  82 SE8       29.50F

$$
MOZ051-052-059>065-251200-
...EAST CENTRAL MISSOURI...

CITY           SKY/WX    TMP DP  RH WIND       PRES   REMARKS
ST LOUIS INTL  LGT RAIN  56  52  86 SE13      29.58F
SPIRIT OF STL  CLOUDY    54  51  90 SE6       29.57F
ST CHARLES     CLOUDY    54  51  90 SE7       29.57F

$$
MOZ072>076-082>087-097>100-106>115-251200-
...SOUTH CENTRAL AND SOUTHEAST MISSOURI...

CITY           SKY/WX    TMP DP  RH WIND       PRES   REMARKS
CAPE GIRARDEAU CLOUDY    57  56  96 SE6       29.62F
FARMINGTON     CLOUDY    54  52  94 S7        29.62F VSB 3/4
POPLAR BLUFF   CLOUDY    57  55  93 SE7       29.60F FOG
WEST PLAINS    FOG       57  55  93 S5        29.58F VSB 1/2

$$



USA.gov is the U.S. government's official web portal to all federal, state and local government web resources and services.